User: anonymous   Login
Location: Unspecified
(0.0000°N, 0.0000°E)
Time: 20:13:52
(UTC+00:00)
Language:

TBA - TO BE ASSIGNED - Orbit

View from above orbital plane
View from above orbital plane
View from above satellite
View from above satellite

Ground track
Ground track

The orbit is defined by the following mean orbital elements,

1 68510U          26145.34264047 +.00000000 +00000-0 +85736-3 0 00003
2 68510  53.1599 130.1377 0001589  78.5644 281.5537 15.34398573    02
Epoch (UTC): 25 May 2026 08:13:24
Eccentricity: 0.0001589
inclination: 53.1599°
perigee height: 462 km
apogee height: 464 km
right ascension of ascending node: 130.1377°
argument of perigee: 78.5644°
revolutions per day: 15.34398573
mean anomaly at epoch: 281.5537°

The dashed part of the orbit path shows where the satellite is in the earth's shadow,  

DLR